SCP
0 0 0 0 0 0 0 0 0 0 0 0 0 0 0 0 0 0 0 0 0 0 0 0 0 0 0 0 0 0 0 0 0 0 0 0 0 0
0 0 0 0 0 0 0 0 0 0 0 0 0 0 0 0 0 0 0 0 0 0 0 0 0 0 0 0 0 0 0 0 0 0 0 0 0 0
0 1 1 1 0 0 0 0 0 0 0 0 0 0 1 0 0 0 0 0 0 0 0 0 0 0 0 0 0 0 0 0 0 0 0 0 0 0
0 0 0 0 1 1 0 0 0 1 0 0 -0 0 0 0 1 1 0 0 0 0 0 0 0 0 0 0 0 0 0 0 0 0 0 0 0 0
0 0 0 0 0 0 0 0 1 1 0 0 0 0 0 0 0 1 1 0 0 0 0 0 0 0 0 0 0 0 0 0 0 0 0 0 0 0
0 0 0 0 0 1 0 1 0 0 0 0 0 0 0 0 1 1 1 1 0 0 0 0 0 0 0 0 0 0 0 0 0 0 0 0 0 0
0 0 0 0 0 0 0 1 1 0 0 0 0 0 0 0 1 1 2 0 1 1 0 1 1 1 1 0 0 0 0 0 0 0 0 0 0 0
0 0 1 0 0 0 0 0 0 1 1 0 0 0 0 0 0 1 1 1 0 0 1 0 1 1 1 0 0 0 0 0 0 0 0 0 0 0
0 0 0 0 0 1 0 0 0 0 0 1 1 1 1 1 1 0 1 1 0 0 0 0 0 0 0 0 0 0 0 0 0 0 0 0 0 0
0 0 0 0 0 1 0 1 0 1 0 0 0 0 -0 0 0 0 0 0 0 0 0 0 0 0 0 0 0 0 0 0 0 0 0 0 0 0
0 0 0 0 0 0 0 0 1 0 0 0 0 0 0 0 0 0 0 0 0 0 0 0 0 0 0 0 0 0 0 0 0 0 0 0 0 0
1 1 0 1 0 0 0 0 0 -0 0 0 0 0 0 0 0 0 0 0 0 0 0 0 0 0 0 0 0 -0 0 0 0 0 0 0 0 0
1 3 2 0 0 0 0 0 0 0 0 0 0 0 0 0 0 0 0 0 0 0 0 0 0 0 0 0 0 0 0 0 0 0 0 0 0 0
2 2 1 0 0 0 0 0 0 0 0 0 0 0 0 0 0 0 0 0 0 0 0 0 0 0 0 0 0 0 0 0 0 0 0 0 0 0
2 1 0 0 0 0 0 0 0 0 0 0 0 0 0 0 0 0 0 0 0 0 0 0 0 0 0 0 0 0 0 0 0 0 -0 0 0 -0
0 0 0 0 0 0 0 0 0 0 0 0 0 0 0 0 0 0 0 0 0 0 0 0 0 -0 0 0 0 0 0 0 0 0 -0 0 0 0
1 0 0 0 0 0 0 0 0 0 0 0 0 0 0 0 0 0 0 0 0 0 0 0 0 0 0 0 0 0 0 0 0 0 0 0 0 0
0 0 0 0 0 0 0 0 0 0 0 0 0 0 0 0 0 0 0 0 0 0 0 0 0 0 0 0 0 0 0 0 0 0 0 0 0 0
0 0 0 0 0 0 0 0 0 0 0 0 0 0 0 0 0 0 0 0 0 0 0 0 0 0 0 0 0 -0 0 0 0 0 0 0 0 0
0 0 0 0 0 0 0 0 0 0 0 0 0 0 0 0 0 0 0 0 0 0 0 0 0 0 0 0 0 0 0 0 0 0 0 0 0 0
0 0 0 0 0 0 0 0 0 0 0 0 0 0 0 0 0 0 0 0 0 0 0 0 0 0 0 0 0 0 0 0 0 0 0 0 0 0
0 0 0 0 0 0 0 0 0 0 0 0 0 0 0 0 0 0 0 0 0 0 0 0 0 0 0 0 0 0 0 0 0 0 0 0 0 0
0 0 0 0 1 1 0 0 0 0 0 0 0 0 0 0 0 0 0 0 0 0 0 0 0 0 0 0 0 0 0 0 0 0 0 0 0 0
Wind_Speed_500mb
22 24 23 21 20 20 19 19 20 24 24 14 12 14 18 10 7 15 20 24 29 21 26 30 31 37 38 39 40 40 41 42 43 43 42 41 40 39
27 28 29 22 22 21 21 21 21 24 30 25 23 19 17 23 27 29 23 34 41 31 32 34 35 34 34 38 42 45 49 51 50 49 50 50 49 48
33 30 27 28 24 23 22 28 26 24 30 31 30 27 18 28 22 26 26 29 29 37 38 35 39 44 47 47 49 50 51 54 56 56 54 55 57 57
33 32 33 30 33 34 31 31 29 26 28 32 30 33 34 31 34 36 29 27 31 35 35 38 50 54 52 54 55 54 54 52 54 57 59 58 59 62
41 35 36 36 38 35 34 29 31 32 28 27 30 30 32 30 32 36 38 29 32 36 44 42 39 36 42 51 52 54 56 57 55 55 58 61 62 63
41 36 38 39 42 41 33 36 33 35 32 36 34 34 35 38 42 37 35 41 43 37 34 35 38 49 53 51 47 46 46 52 59 62 62 63 67 68
43 40 37 41 44 48 37 37 38 35 34 41 37 38 39 36 29 27 34 36 41 45 51 40 42 41 44 50 42 40 42 48 48 54 63 68 70 74
44 41 43 46 47 53 51 50 47 46 47 43 46 43 48 50 39 43 47 50 53 35 36 48 38 41 45 51 49 54 51 55 61 65 70 74 74 74
44 43 41 35 37 43 42 39 42 45 49 47 52 52 47 44 47 48 42 43 41 43 44 46 37 41 38 48 52 51 57 62 63 64 67 69 68 72
50 46 43 47 46 43 44 39 39 41 43 41 45 46 43 43 43 41 44 46 41 31 30 38 28 25 31 44 49 52 53 54 51 54 58 57 59 65
59 58 52 55 46 41 39 43 45 43 47 46 44 49 43 38 38 40 32 26 31 26 35 40 33 22 22 40 49 44 47 54 58 58 64 69 67 61
48 50 51 53 53 47 41 41 42 43 43 45 32 33 33 33 32 25 23 19 19 14 20 23 14 17 10 25 33 43 44 39 39 40 40 43 45 47
46 51 46 48 44 42 38 36 40 35 29 27 19 14 19 11 8 16 16 12 7 2 17 14 12 12 7 21 23 25 28 26 24 25 26 27 25 23
50 40 42 52 41 39 36 37 34 31 22 15 18 17 15 16 13 12 7 5 3 2 4 11 18 23 21 22 17 23 28 29 26 27 28 29 30 32
50 42 48 48 41 37 36 31 32 31 22 21 22 19 18 17 17 10 4 2 7 11 15 16 10 4 12 13 15 18 17 25 27 31 34 35 36 35
57 59 56 46 39 38 36 35 35 27 21 23 24 23 20 18 11 9 10 12 13 18 23 24 23 21 7 12 11 13 15 8 21 26 26 28 29 30
60 63 58 50 43 41 37 38 33 25 28 24 24 23 20 15 14 14 13 15 17 16 18 22 19 28 10 12 6 10 10 12 13 17 18 18 25 21
57 51 51 47 35 31 28 28 26 30 28 27 24 21 20 20 18 20 17 19 21 21 18 15 17 16 24 30 18 8 12 12 15 18 13 10 14 26
39 29 30 32 31 30 32 30 29 28 29 27 23 23 23 23 27 24 23 20 22 22 19 14 15 15 17 20 15 17 15 13 16 18 18 16 16 13
36 33 31 30 32 30 30 30 28 29 29 28 26 26 26 26 27 28 23 26 26 24 22 18 18 19 19 21 22 23 29 20 12 20 19 21 24 28
39 33 30 30 31 32 31 33 35 34 34 30 30 28 29 35 37 28 29 30 26 21 22 23 27 29 34 30 26 25 37 21 26 23 22 22 23 24
33 34 35 32 33 33 34 36 36 35 29 36 29 27 23 24 26 26 29 32 31 24 26 25 29 23 18 20 24 25 25 34 25 31 25 20 17 18
35 34 33 33 37 40 37 37 39 34 34 32 29 30 28 27 27 26 28 26 29 30 30 29 29 28 29 27 30 31 31 30 32 38 39 29 33 35
Wind_Direction_500mb
239 252 253 251 255 258 262 268 277 290 278 219 247 244 276 259 247 284 265 269 273 273 261 268 272 271 268 267 269 271 273 274 273 270 269 269 270 270
236 239 237 243 249 251 255 260 265 263 281 279 271 286 254 264 290 283 277 271 271 274 274 274 270 274 273 271 272 274 274 271 271 271 269 269 270 269
230 226 240 235 233 239 256 250 262 259 265 270 263 271 294 298 278 268 270 276 279 279 282 284 282 279 276 275 276 278 279 275 270 268 269 269 269 269
234 233 236 240 249 241 240 247 257 256 261 274 261 265 278 276 270 274 284 278 275 274 289 286 280 284 284 278 278 279 278 279 273 269 269 270 269 268
229 233 239 241 240 244 244 242 254 261 261 260 267 268 270 273 274 279 281 281 290 283 283 288 289 288 289 292 287 281 277 274 274 271 270 270 271 271
241 230 239 249 252 252 242 248 254 253 252 256 262 264 268 275 269 266 270 274 278 275 275 282 289 287 287 289 292 288 289 285 279 276 272 270 267 267
232 239 247 252 252 253 244 254 252 257 253 259 262 270 286 287 293 289 278 285 278 275 277 284 280 279 289 288 286 283 282 281 276 271 270 267 264 263
244 241 248 250 255 260 258 255 253 260 265 262 261 264 269 282 286 283 283 285 290 299 287 278 282 282 273 275 283 282 284 278 279 279 279 276 272 271
249 246 249 259 263 260 264 267 266 264 265 268 269 271 275 280 284 288 285 287 285 285 285 286 285 283 280 277 275 279 279 279 282 282 283 283 277 274
246 253 257 256 250 264 271 270 271 268 266 268 268 271 270 275 279 283 287 294 301 311 296 279 285 279 288 281 277 279 283 287 284 283 283 284 284 282
251 249 252 260 266 261 265 273 276 270 269 269 261 268 276 274 278 285 289 278 286 290 278 281 289 290 277 283 290 286 288 285 287 284 282 287 285 285
253 261 261 256 262 267 264 267 273 274 264 275 272 261 269 275 279 279 282 280 283 299 299 319 323 303 286 271 295 308 306 305 305 308 305 301 296 291
242 244 256 257 256 262 263 266 271 276 257 250 254 264 281 272 282 305 308 300 293 331 313 348 1 12 273 300 346 359 7 5 7 8 1 353 349 339
241 247 254 259 265 257 258 274 265 261 241 247 246 237 219 220 258 287 295 302 340 7 20 13 24 357 7 357 346 349 15 28 32 37 39 41 36 27
242 246 246 256 263 251 257 256 263 261 256 236 226 220 213 213 239 267 265 189 47 357 5 10 20 350 352 351 352 354 18 25 42 36 41 39 35 36
240 242 250 252 260 252 252 258 253 248 216 218 215 214 214 230 235 228 270 306 275 279 309 325 342 354 327 322 350 339 357 359 11 21 27 30 32 40
238 238 239 244 250 249 249 252 242 214 209 204 211 211 216 224 225 240 245 251 261 264 287 295 314 336 352 353 324 311 318 319 329 344 16 346 344 1
234 235 242 242 231 227 225 221 209 208 201 205 209 217 228 230 238 239 252 254 261 264 270 267 279 291 293 286 283 271 299 301 295 317 349 330 315 313
218 225 229 230 225 221 220 213 209 207 197 208 217 227 231 234 239 244 254 262 265 264 262 266 271 277 288 302 267 311 310 278 286 302 300 296 294 294
217 219 228 224 220 218 215 214 209 206 210 216 224 233 234 236 244 246 254 259 261 262 263 262 263 260 261 272 280 296 291 301 274 280 286 287 286 288
215 214 224 219 218 214 215 216 213 214 213 219 231 232 235 242 248 252 256 259 254 254 258 258 257 254 259 272 277 281 264 267 293 292 274 267 277 283
214 216 222 222 220 216 212 213 214 219 224 234 236 239 237 243 248 250 252 246 247 246 250 247 260 273 270 256 265 273 276 276 269 298 295 294 286 271
211 216 217 225 225 221 207 212 223 223 232 231 228 232 234 246 250 247 246 251 246 248 249 250 251 257 261 262 265 269 272 271 270 276 276 285 282 292
Wind_Speed_850mb
22 24 23 21 20 20 19 19 20 24 24 14 12 14 18 10 7 15 20 24 29 21 26 30 31 37 38 39 40 40 41 42 43 43 42 41 40 39
27 28 29 22 22 21 21 21 21 24 30 25 23 19 17 23 27 29 23 34 41 31 32 34 35 34 34 38 42 45 49 51 50 49 50 50 49 48
33 30 27 28 24 23 22 28 26 24 30 31 30 27 18 28 22 26 26 29 29 37 38 35 39 44 47 47 49 50 51 54 56 56 54 55 57 57
33 32 33 30 33 34 31 31 29 26 28 32 30 33 34 31 34 36 29 27 31 35 35 38 50 54 52 54 55 54 54 52 54 57 59 58 59 62
41 35 36 36 38 35 34 29 31 32 28 27 30 30 32 30 32 36 38 29 32 36 44 42 39 36 42 51 52 54 56 57 55 55 58 61 62 63
41 36 38 39 42 41 33 36 33 35 32 36 34 34 35 38 42 37 35 41 43 37 34 35 38 49 53 51 47 46 46 52 59 62 62 63 67 68
43 40 37 41 44 48 37 37 38 35 34 41 37 38 39 36 29 27 34 36 41 45 51 40 42 41 44 50 42 40 42 48 48 54 63 68 70 74
44 41 43 46 47 53 51 50 47 46 47 43 46 43 48 50 39 43 47 50 53 35 36 48 38 41 45 51 49 54 51 55 61 65 70 74 74 74
44 43 41 35 37 43 42 39 42 45 49 47 52 52 47 44 47 48 42 43 41 43 44 46 37 41 38 48 52 51 57 62 63 64 67 69 68 72
50 46 43 47 46 43 44 39 39 41 43 41 45 46 43 43 43 41 44 46 41 31 30 38 28 25 31 44 49 52 53 54 51 54 58 57 59 65
59 58 52 55 46 41 39 43 45 43 47 46 44 49 43 38 38 40 32 26 31 26 35 40 33 22 22 40 49 44 47 54 58 58 64 69 67 61
48 50 51 53 53 47 41 41 42 43 43 45 32 33 33 33 32 25 23 19 19 14 20 23 14 17 10 25 33 43 44 39 39 40 40 43 45 47
46 51 46 48 44 42 38 36 40 35 29 27 19 14 19 11 8 16 16 12 7 2 17 14 12 12 7 21 23 25 28 26 24 25 26 27 25 23
50 40 42 52 41 39 36 37 34 31 22 15 18 17 15 16 13 12 7 5 3 2 4 11 18 23 21 22 17 23 28 29 26 27 28 29 30 32
50 42 48 48 41 37 36 31 32 31 22 21 22 19 18 17 17 10 4 2 7 11 15 16 10 4 12 13 15 18 17 25 27 31 34 35 36 35
57 59 56 46 39 38 36 35 35 27 21 23 24 23 20 18 11 9 10 12 13 18 23 24 23 21 7 12 11 13 15 8 21 26 26 28 29 30
60 63 58 50 43 41 37 38 33 25 28 24 24 23 20 15 14 14 13 15 17 16 18 22 19 28 10 12 6 10 10 12 13 17 18 18 25 21
57 51 51 47 35 31 28 28 26 30 28 27 24 21 20 20 18 20 17 19 21 21 18 15 17 16 24 30 18 8 12 12 15 18 13 10 14 26
39 29 30 32 31 30 32 30 29 28 29 27 23 23 23 23 27 24 23 20 22 22 19 14 15 15 17 20 15 17 15 13 16 18 18 16 16 13
36 33 31 30 32 30 30 30 28 29 29 28 26 26 26 26 27 28 23 26 26 24 22 18 18 19 19 21 22 23 29 20 12 20 19 21 24 28
39 33 30 30 31 32 31 33 35 34 34 30 30 28 29 35 37 28 29 30 26 21 22 23 27 29 34 30 26 25 37 21 26 23 22 22 23 24
33 34 35 32 33 33 34 36 36 35 29 36 29 27 23 24 26 26 29 32 31 24 26 25 29 23 18 20 24 25 25 34 25 31 25 20 17 18
35 34 33 33 37 40 37 37 39 34 34 32 29 30 28 27 27 26 28 26 29 30 30 29 29 28 29 27 30 31 31 30 32 38 39 29 33 35
Wind_Direction_850mb
239 252 253 251 255 258 262 268 277 290 278 219 247 244 276 259 247 284 265 269 273 273 261 268 272 271 268 267 269 271 273 274 273 270 269 269 270 270
236 239 237 243 249 251 255 260 265 263 281 279 271 286 254 264 290 283 277 271 271 274 274 274 270 274 273 271 272 274 274 271 271 271 269 269 270 269
230 226 240 235 233 239 256 250 262 259 265 270 263 271 294 298 278 268 270 276 279 279 282 284 282 279 276 275 276 278 279 275 270 268 269 269 269 269
234 233 236 240 249 241 240 247 257 256 261 274 261 265 278 276 270 274 284 278 275 274 289 286 280 284 284 278 278 279 278 279 273 269 269 270 269 268
229 233 239 241 240 244 244 242 254 261 261 260 267 268 270 273 274 279 281 281 290 283 283 288 289 288 289 292 287 281 277 274 274 271 270 270 271 271
241 230 239 249 252 252 242 248 254 253 252 256 262 264 268 275 269 266 270 274 278 275 275 282 289 287 287 289 292 288 289 285 279 276 272 270 267 267
232 239 247 252 252 253 244 254 252 257 253 259 262 270 286 287 293 289 278 285 278 275 277 284 280 279 289 288 286 283 282 281 276 271 270 267 264 263
244 241 248 250 255 260 258 255 253 260 265 262 261 264 269 282 286 283 283 285 290 299 287 278 282 282 273 275 283 282 284 278 279 279 279 276 272 271
249 246 249 259 263 260 264 267 266 264 265 268 269 271 275 280 284 288 285 287 285 285 285 286 285 283 280 277 275 279 279 279 282 282 283 283 277 274
246 253 257 256 250 264 271 270 271 268 266 268 268 271 270 275 279 283 287 294 301 311 296 279 285 279 288 281 277 279 283 287 284 283 283 284 284 282
251 249 252 260 266 261 265 273 276 270 269 269 261 268 276 274 278 285 289 278 286 290 278 281 289 290 277 283 290 286 288 285 287 284 282 287 285 285
253 261 261 256 262 267 264 267 273 274 264 275 272 261 269 275 279 279 282 280 283 299 299 319 323 303 286 271 295 308 306 305 305 308 305 301 296 291
242 244 256 257 256 262 263 266 271 276 257 250 254 264 281 272 282 305 308 300 293 331 313 348 1 12 273 300 346 359 7 5 7 8 1 353 349 339
241 247 254 259 265 257 258 274 265 261 241 247 246 237 219 220 258 287 295 302 340 7 20 13 24 357 7 357 346 349 15 28 32 37 39 41 36 27
242 246 246 256 263 251 257 256 263 261 256 236 226 220 213 213 239 267 265 189 47 357 5 10 20 350 352 351 352 354 18 25 42 36 41 39 35 36
240 242 250 252 260 252 252 258 253 248 216 218 215 214 214 230 235 228 270 306 275 279 309 325 342 354 327 322 350 339 357 359 11 21 27 30 32 40
238 238 239 244 250 249 249 252 242 214 209 204 211 211 216 224 225 240 245 251 261 264 287 295 314 336 352 353 324 311 318 319 329 344 16 346 344 1
234 235 242 242 231 227 225 221 209 208 201 205 209 217 228 230 238 239 252 254 261 264 270 267 279 291 293 286 283 271 299 301 295 317 349 330 315 313
218 225 229 230 225 221 220 213 209 207 197 208 217 227 231 234 239 244 254 262 265 264 262 266 271 277 288 302 267 311 310 278 286 302 300 296 294 294
217 219 228 224 220 218 215 214 209 206 210 216 224 233 234 236 244 246 254 259 261 262 263 262 263 260 261 272 280 296 291 301 274 280 286 287 286 288
215 214 224 219 218 214 215 216 213 214 213 219 231 232 235 242 248 252 256 259 254 254 258 258 257 254 259 272 277 281 264 267 293 292 274 267 277 283
214 216 222 222 220 216 212 213 214 219 224 234 236 239 237 243 248 250 252 246 247 246 250 247 260 273 270 256 265 273 276 276 269 298 295 294 286 271
211 216 217 225 225 221 207 212 223 223 232 231 228 232 234 246 250 247 246 251 246 248 249 250 251 257 261 262 265 269 272 271 270 276 276 285 282 292